Overview Statistics Trail Chart Weather Telemetry Raw packets
 

This is the latest recevied weather packets stored in our database for station/object BYNCTR-WX. If no packets are shown the sender has not sent any weather packets the latest 10 day(s).

<< 1 2 3 4 5 6 >>
Time Temp. Humidity Pressure Rain* Wind** Luminosity Snow
1788530471 21.67° C 94% 988 hPa 0 mm - - -
1788529570 22.22° C 95% 985.9 hPa 1.02 mm - - -
1788528672 21.67° C 95% 985.9 hPa 1.02 mm - - -
1788527768 21.11° C 95% 985.8 hPa 1.02 mm - - -
1788526866 21.11° C 93% 987.4 hPa 1.02 mm - - -
1788525972 21.11° C 94% 986.6 hPa 4.83 mm - - -
1788525072 21.11° C 94% 986.6 hPa 4.83 mm - - -
1788524167 20.56° C 94% 986.6 hPa 0.76 mm - - -
1788523266 20.56° C 94% 986.6 hPa 0.76 mm - - -
1788522391 20.56° C 90% 985.6 hPa 0.25 mm - - -
1788521462 20° C 89% 987.3 hPa 0.51 mm - - -
1788519663 20.56° C 89% 987.3 hPa 0.51 mm - - -
1788518761 20.56° C 86% 985.6 hPa 0 mm - - -
1788517861 20.56° C 89% 987.5 hPa 0 mm - - -
1788516967 20.56° C 89% 987.4 hPa 0 mm - - -
1788516069 20.56° C 89% 987.4 hPa 0 mm - - -
1788515166 20.56° C 93% 987.9 hPa 0 mm - - -
1788514265 20.56° C 92% 986.5 hPa 0 mm - - -
1788513366 20° C 92% 986.4 hPa 0 mm - - -
1788512467 20° C 92% 986.4 hPa 0 mm - - -
1788511566 20° C 92% 986.5 hPa 0 mm - - -
1788510975 20° C 92% 986.2 hPa 0 mm - - -
1788509766 20° C 92% 986.1 hPa 0 mm - - -
1788508860 20° C 92% 986.1 hPa 0 mm - - -
1788507965 20° C 92% 986 hPa 0 mm - - -

* Rain latest hour (hover to see other rain measurements)
** Current wind speed in m/s (hover to see current wind gust speed)